Fremont, MI

11:32 PM EDT on October 20, 2019 (GMT -0400)
Fremont

Weather History for KFFX - August, 2019

Change the Weather History Date:

Thursday, August 29, 2019

  Actual Average (KMKG) Record (KMKG)
Temperature  
Mean Temperature 64 °F -  
Max Temperature 79 °F 76 °F 94 °F (1953)
Min Temperature 48 °F 58 °F 38 °F (1982)
Degree Days  
Heating Degree Days 2    
Growing Degree Days 14 (Base 50)    
Moisture  
Dew Point 52 °F    
Average Humidity 73    
Maximum Humidity 94    
Minimum Humidity 27    
Precipitation  
Precipitation 0.00 in - - ()
Sea Level Pressure  
Sea Level Pressure 29.87 in    
Wind  
Wind Speed 4 mph ()    
Max Wind Speed 23 mph    
Max Gust Speed 36 mph    
Visibility 7.0 miles    
Events Fog , Rain    
Averages and records for this station are not official NWS values.
T = Trace of Precipitation, MM = Missing Value Source: Averaged Metar Reports

Daily Weather History Graph

Daily Weather History Graph

Search for Another Location

Airport or City:

Astronomy

Aug. 29, 2019 Rise Set
Actual Time 7:04 AM EDT 8:24 PM EDT
Civil Twilight 6:34 AM EDT 8:54 PM EDT
Nautical Twilight 5:58 AM EDT 9:29 PM EDT
Astronomical Twilight 5:20 AM EDT 10:07 PM EDT
Moon 5:44 AM EDT (8/29) 8:23 PM EDT (8/29)
Length of Visible Light 14h 19m
Length of Day
13h 20m
Waning Crescent, 1% of the Moon is Illuminated
Aug 29
Waning Crescent
Aug 30
New
Sep 5
First Quarter
Sep 14
Full
Sep 21
Last Quarter

Hourly Weather History & Observations

Time (EDT) Temp. Dew Point Humidity Pressure Visibility Wind Dir Wind Speed Gust Speed Precip Events Conditions
12:16 AM 57.0 °F 54.5 °F 91% 29.93 in 10.0 mi Calm Calm - N/A   Scattered Clouds
12:35 AM 56.3 °F 53.8 °F 91% 29.94 in 10.0 mi Calm Calm - N/A   Clear
12:55 AM 55.6 °F 53.4 °F 92% 29.93 in 10.0 mi Calm Calm - N/A   Clear
1:18 AM 54.5 °F 52.5 °F 93% 29.93 in 10.0 mi Calm Calm - N/A   Clear
1:36 AM 54.0 °F 52.0 °F 93% 29.93 in 5.0 mi Calm Calm - N/A   Clear
1:55 AM 53.4 °F 51.6 °F 94% 29.94 in 10.0 mi Calm Calm - N/A   Clear
1:56 AM 53.2 °F 51.4 °F 94% 29.94 in 10.0 mi Calm Calm - N/A   Clear
2:15 AM 52.2 °F 50.2 °F 93% 29.94 in 4.0 mi Calm Calm - N/A   Clear
2:39 AM 52.0 °F 50.0 °F 93% 29.93 in 10.0 mi Calm Calm - N/A   Scattered Clouds
2:56 AM 51.8 °F 49.8 °F 93% 29.93 in 10.0 mi Calm Calm - N/A   Scattered Clouds
3:15 AM 52.7 °F 50.5 °F 92% 29.93 in 10.0 mi Calm Calm - N/A   Clear
3:16 AM 52.7 °F 50.5 °F 92% 29.93 in 10.0 mi Calm Calm - N/A   Clear
3:36 AM 50.5 °F 48.6 °F 93% 29.93 in 10.0 mi Calm Calm - N/A   Clear
3:55 AM 50.9 °F 48.9 °F 93% 29.93 in 10.0 mi Calm Calm - N/A   Clear
4:00 AM 51.1 °F 49.1 °F 93% 29.93 in 10.0 mi Calm Calm - N/A   Clear
4:17 AM 50.5 °F 48.6 °F 93% 29.93 in 7.0 mi Calm Calm - N/A   Clear
4:36 AM 50.9 °F 48.9 °F 93% 29.93 in 3.0 mi Calm Calm - N/A   Scattered Clouds
4:55 AM 51.3 °F 49.1 °F 92% 29.93 in 3.0 mi Calm Calm - N/A   Scattered Clouds
4:56 AM 51.3 °F 49.1 °F 92% 29.93 in 2.0 mi Calm Calm - N/A   Scattered Clouds
5:15 AM 50.7 °F 48.6 °F 92% 29.93 in 0.8 mi Calm Calm - N/A   Mist
5:16 AM 51.1 °F 48.7 °F 92% 29.93 in 0.5 mi Calm Calm - N/A Fog Fog
5:39 AM 50.5 °F 48.2 °F 92% 29.93 in 0.5 mi Calm Calm - N/A Fog Fog
5:57 AM 50.2 °F 47.8 °F 92% 29.94 in 1.0 mi Calm Calm - N/A   Mist
6:15 AM 50.5 °F 48.2 °F 92% 29.94 in 0.5 mi Calm Calm - N/A Fog Fog
6:35 AM 49.5 °F 47.1 °F 92% 29.94 in 0.5 mi Calm Calm - N/A Fog Fog
6:55 AM 49.3 °F 46.9 °F 92% 29.94 in 0.2 mi Calm Calm - N/A Fog Fog
6:59 AM 49.1 °F 46.6 °F 91% 29.94 in 0.2 mi Calm Calm - N/A Fog Fog
7:18 AM 48.9 °F 46.4 °F 91% 29.94 in 10.0 mi Calm Calm - N/A   Clear
7:36 AM 50.0 °F 47.5 °F 91% 29.94 in 2.5 mi Calm Calm - N/A   Clear
7:55 AM 50.5 °F 48.0 °F 91% 29.95 in 7.0 mi Calm Calm - N/A   Clear
7:56 AM 50.9 °F 48.2 °F 90% 29.95 in 10.0 mi Calm Calm - N/A   Clear
8:15 AM 54.5 °F 52.0 °F 91% 29.95 in 10.0 mi Calm Calm - N/A   Clear
8:39 AM 57.0 °F 55.0 °F 93% 29.94 in 10.0 mi Calm Calm - N/A   Clear
8:57 AM 59.9 °F 55.4 °F 85% 29.94 in 10.0 mi South 4.6 mph - N/A   Clear
9:15 AM 61.5 °F 56.3 °F 83% 29.93 in 10.0 mi South 4.6 mph - N/A   Clear
9:16 AM 61.7 °F 56.1 °F 82% 29.93 in 10.0 mi South 4.6 mph - N/A   Clear
9:35 AM 64.4 °F 54.3 °F 70% 29.93 in 10.0 mi SSW 4.6 mph - N/A   Clear
9:36 AM 64.6 °F 54.1 °F 69% 29.93 in 10.0 mi SSW 4.6 mph - N/A   Clear
9:55 AM 67.5 °F 52.0 °F 58% 29.93 in 10.0 mi SW 8.1 mph - N/A   Clear
10:18 AM 69.3 °F 49.5 °F 49% 29.92 in 10.0 mi WSW 9.2 mph - N/A   Clear
10:36 AM 70.0 °F 49.6 °F 48% 29.91 in 10.0 mi SSW 11.5 mph 17.3 mph N/A   Clear
11:15 AM 72.5 °F 44.2 °F 36% 29.90 in 10.0 mi SW 17.3 mph 23.0 mph N/A   Clear
11:16 AM 72.5 °F 44.1 °F 36% 29.90 in 10.0 mi SW 16.1 mph 20.7 mph N/A   Clear
11:39 AM 72.7 °F 44.6 °F 37% 29.90 in 10.0 mi SW 17.3 mph 25.3 mph N/A   Clear
11:57 AM 73.4 °F 45.5 °F 37% 29.91 in 10.0 mi SW 12.7 mph 21.9 mph N/A   Clear
12:15 PM 74.3 °F 45.1 °F 35% 29.91 in 10.0 mi WSW 12.7 mph 20.7 mph N/A   Clear
12:35 PM 75.6 °F 45.0 °F 34% 29.90 in 10.0 mi SW 23.0 mph 29.9 mph N/A   Clear
12:55 PM 75.6 °F 43.2 °F 31% 29.89 in 10.0 mi SW 17.3 mph 28.8 mph N/A   Clear
12:59 PM 75.4 °F 43.9 °F 32% 29.89 in 10.0 mi WSW 16.1 mph 28.8 mph N/A   Scattered Clouds
1:17 PM 75.2 °F 43.0 °F 32% 29.88 in 10.0 mi SW 17.3 mph 27.6 mph N/A   Scattered Clouds
1:35 PM 76.5 °F 43.2 °F 30% 29.86 in 10.0 mi SSW 17.3 mph 28.8 mph N/A   Mostly Cloudy
1:55 PM 76.5 °F 43.7 °F 31% 29.85 in 10.0 mi SW 20.7 mph 25.3 mph N/A   Mostly Cloudy
1:56 PM 76.5 °F 43.9 °F 31% 29.85 in 10.0 mi SSW 18.4 mph 25.3 mph N/A   Mostly Cloudy
2:15 PM 77.9 °F 45.3 °F 31% 29.84 in 10.0 mi SSW 17.3 mph 24.2 mph N/A   Scattered Clouds
2:20 PM 77.9 °F 44.8 °F 31% 29.83 in 10.0 mi SSW 17.3 mph 24.2 mph N/A   Scattered Clouds
2:38 PM 78.8 °F 44.1 °F 29% 29.83 in 10.0 mi SW 21.9 mph 26.5 mph N/A   Scattered Clouds
2:56 PM 79.3 °F 42.8 °F 27% 29.83 in 10.0 mi SW 20.7 mph 27.6 mph N/A   Scattered Clouds
3:15 PM 78.8 °F 44.4 °F 30% 29.81 in 10.0 mi SSW 21.9 mph 29.9 mph N/A   Mostly Cloudy
3:35 PM 79.3 °F 45.9 °F 31% 29.80 in 10.0 mi SSW 21.9 mph 33.4 mph N/A   Mostly Cloudy
3:36 PM 79.3 °F 45.7 °F 30% 29.80 in 10.0 mi SSW 21.9 mph 33.4 mph N/A   Mostly Cloudy
3:59 PM 79.2 °F 47.3 °F 33% 29.78 in 10.0 mi SSW 23.0 mph 33.4 mph N/A   Overcast
4:17 PM 77.7 °F 48.6 °F 36% 29.76 in 10.0 mi SSW 17.3 mph 31.1 mph N/A   Mostly Cloudy
4:36 PM 76.3 °F 50.0 °F 40% 29.75 in 10.0 mi SSW 19.6 mph 26.5 mph N/A   Scattered Clouds
4:55 PM 76.1 °F 50.5 °F 41% 29.74 in 10.0 mi SSW 19.6 mph 27.6 mph N/A   Scattered Clouds
5:15 PM 75.9 °F 51.3 °F 42% 29.75 in 10.0 mi SSW 17.3 mph 25.3 mph N/A   Clear
5:38 PM 75.2 °F 53.4 °F 47% 29.75 in 10.0 mi SW 16.1 mph 25.3 mph N/A Rain Light Rain
5:56 PM 72.3 °F 57.0 °F 59% 29.75 in 7.0 mi SW 12.7 mph 23.0 mph N/A Rain Rain
6:15 PM 69.8 °F 59.2 °F 69% 29.77 in 2.0 mi WSW 15.0 mph 35.7 mph N/A Rain Heavy Rain
6:16 PM 68.9 °F 58.5 °F 69% 29.76 in 1.0 mi West 8.1 mph 35.7 mph N/A Rain Heavy Rain
6:35 PM 67.6 °F 62.8 °F 84% 29.75 in 1.8 mi WNW 12.7 mph 18.4 mph N/A Rain Rain
6:36 PM 67.8 °F 63.0 °F 84% 29.75 in 2.5 mi NW 13.8 mph 18.4 mph N/A Rain Rain
6:59 PM 67.8 °F 65.5 °F 92% 29.74 in 2.0 mi West 4.6 mph - N/A Rain Light Rain
7:17 PM 67.1 °F 63.9 °F 89% 29.74 in 2.5 mi West 6.9 mph - N/A Rain Light Rain
7:35 PM 67.3 °F 63.5 °F 88% 29.76 in 10.0 mi WSW 5.8 mph - N/A   Overcast
7:55 PM 67.1 °F 64.4 °F 91% 29.78 in 10.0 mi West 3.5 mph - N/A   Overcast
7:56 PM 67.3 °F 64.4 °F 90% 29.78 in 10.0 mi Calm Calm - N/A   Overcast
8:15 PM 66.0 °F 63.7 °F 92% 29.78 in 10.0 mi NNW 5.8 mph - N/A   Scattered Clouds
8:38 PM 64.8 °F 63.0 °F 94% 29.79 in 10.0 mi West 3.5 mph - N/A   Clear
8:56 PM 64.2 °F 62.4 °F 94% 29.79 in 7.0 mi Calm Calm - N/A   Clear
9:15 PM 63.5 °F 61.5 °F 93% 29.80 in 1.5 mi Calm Calm - N/A   Mist
9:16 PM 63.3 °F 61.5 °F 94% 29.80 in 1.2 mi Calm Calm - N/A   Mist
9:35 PM 63.3 °F 61.2 °F 93% 29.81 in 0.2 mi Calm Calm - N/A Fog Fog
9:59 PM 60.8 °F 58.8 °F 93% 29.82 in 0.2 mi Calm Calm - N/A Fog Fog
10:16 PM 60.8 °F 58.6 °F 93% 29.82 in 0.5 mi Calm Calm - N/A Fog Fog
10:35 PM 61.5 °F 59.2 °F 92% 29.83 in 0.8 mi Calm Calm - N/A   Mostly Cloudy
10:36 PM 61.5 °F 59.2 °F 92% 29.83 in 0.8 mi Calm Calm - N/A   Mostly Cloudy
10:55 PM 61.0 °F 58.8 °F 93% 29.84 in 1.8 mi Calm Calm - N/A   Overcast
10:56 PM 61.0 °F 58.8 °F 93% 29.84 in 1.5 mi Calm Calm - N/A   Overcast
11:15 PM 60.8 °F 58.3 °F 91% 29.86 in 0.8 mi Calm Calm - N/A   Overcast
11:38 PM 61.9 °F 59.4 °F 91% 29.87 in 7.0 mi Calm Calm - N/A   Mostly Cloudy
11:56 PM 61.0 °F 58.6 °F 92% 29.88 in 10.0 mi Calm Calm - N/A   Mostly Cloudy